STARLINK-11555, 62915

Orbit data source: Space-Track

STARLINK-11555, 62915 is a payload satellite owned by SpaceX/Seattle (US) in LEO that was launched on Sat, 08 Feb 2025 UTC via an FALCON 9 launch vehicle from the Air Force Eastern Test Range (AFETR). Payload-class satellites include a variety of spacecraft equipped with specific instruments for various scientific and technological missions. These include communications satellites like Starlink; space stations such as the ISS; scientific satellites like the Hubble; Earth observation satellites from companies like Planet Labs, Umbra, and HawkEye 360; GPS; miniature CubeSats for education and research; and military/defense satellites.

Loading next visibility...
Identifier
62915, 2025-027J
Orbit
LEO
Country
Flag of USUS
Related business
Manufacturer
SpaceX/Seattle
Mission
Operational Commercial Communications
Bus & Motor
STARLINK V2MD, Unknown motor
Mass
960 kg wet, ~910 kg dry
Launch date (UTC)
2025-02-08 (9 months ago)
Launch vehicle
FALCON 9
Launch site
Air Force Eastern Test Range (AFETR)
Object type
Payload
Rocket body
Debris
Shape & HBR
Box + 2 Pan, 18.1 m
Radar Cross Section
36.964 m², Large (>1 m²)

Expand to show TLE details & history
Last TLE update: 12 hours ago

TLE from 12 hours ago
0 STARLINK-11555
1 62915U 25027J   25307.63339019  .00355863  00000-0  26501-2 0  9996
2 62915  43.0002  27.7665 0001778 297.8272  62.2415 15.70926882 43361
Epoch: 2025-11-03T15:12Z
TLE epoch observation values (Epoch: 2025-11-03T15:12:04.912Z)
Latitude
-0.00004°
Longitude
116.61403°
Altitude
355.46 km
Speed
7.698 km/s
True Right ascension
01h 51m 03s
True Declination
0° 00' 00"
Sunlit
Object was in full shadow at epoch
Visualization orbit readout
Latitude
Unknown
Longitude
Unknown
Altitude
Unknown
Speed
Unknown
Apparent Right ascension
Unknown
Apparent Declination
Unknown
Sunlit
N/A
Visualization observer readout
Local Sidereal Time
23:15:46
Azimuth
Unknown
Elevation
Unknown
Doppler factor
Unknown
Orbital elements
Apogee altitude
359.426 km
Perigee altitude
357.031 km
Semi-major axis
6,736.365 km
Eccentricity
0.00018
Inclination
43.0002°
RAAN
27.7665°
Arg. of periapsis
297.8272°
True anomaly
62.25953°
Mean anomaly
62.2415°
Eccentric anomaly
62.25052°
Mean motion
3.92559 °/min
Orbital period
91.71 mins
BSTAR
0.0026501
Loading maneuver chart data...
Computing Atmospheric mass density...
Loading historical data...
Loading historical data...
Loading historical data...
Loading historical data...
Loading historical data...
Loading historical data...
Loading historical data...

Documentation

Showing up to 5 results
|